Location: ??????????
(42.1626°N, 44.1160°E)
Time: 13:22:53
(UTC+00:00)

PSLV R/B - Pass Details

Date: 03 March 2021
Orbit: 567 x 598 km, 98.2° (Epoch: 21 April)

Event Time Altitude Azimuth Distance (km) Brightness Sun altitude
Rises 15:21:03 0° 19° (NNE) 2,802 7.2 -5.5°
Reaches altitude 10° 15:23:18 10° 26° (NNE) 1,893 6.3 -5.9°
Maximum altitude 15:27:14 44° 99° (E) 802 4.2 -6.6°
Drops below altitude 10° 15:31:05 10° 172° (S) 1,865 6.5 -7.3°
Sets 15:33:17 0° 179° (S) 2,754 7.4 -7.7°
